Regional Weather Roundup
Issued by NWS

Home | Current Version | Previous Version | Graphics & Text | Print | Product List | Glossary On
Versions: 1 2 3 4 5 6 7 8 9 10 11 12 13 14 15 16 17 18 19 20 21 22 23 24 25 26 27 28 29 30 31 32 33 34 35 36 37 38 39 40 41 42 43 44 45 46 47 48 49 50
000
ASUS43 KOAX 302310
RWRNE

WEATHER ROUNDUP FOR NEBRASKA
NATIONAL WEATHER SERVICE OMAHA NE
600 PM CDT TUE SEP 30 2014

NOTES: SATELLITE DATA IS BEING USED TO AUGMENT CLOUD COVER ABOVE
       12000 FEET.
       "FAIR" INDICATES FEW OR NO CLOUDS BELOW 12,000 FEET WITH NO
       SIGNIFICANT WEATHER AND/OR OBSTRUCTIONS TO VISIBILITY.

  * THESE STATIONS DO NOT REPORT WEATHER SUCH AS RAIN...SNOW OR FOG.

NEZ001>004-019>022-054>056-010000-
NEBRASKA PANHANDLE

CITY           SKY/WX    TMP DP  RH WIND       PRES   REMARKS
SCOTTSBLUFF    PTSUNNY   68  42  38 W22G29    29.72R
ALLIANCE       PTSUNNY   67  42  40 W20       29.71R
CHADRON        MOSUNNY   68  46  45 NW12G20   29.65R
KIMBALL        PTSUNNY   65  36  33 W16G24    29.77S
SIDNEY         PTSUNNY   67  38  34 W10       29.76S
$$

NEZ057>060-069>072-079>082-010000-
SOUTHWEST NEBRASKA

CITY           SKY/WX    TMP DP  RH WIND       PRES   REMARKS
NORTH PLATTE   PTSUNNY   75  44  33 SW9       29.70S
IMPERIAL       SUNNY     74  38  27 S14       29.73S
LEXINGTON      SUNNY     76  47  35 S6        29.71S
MCCOOK         MOSUNNY   78  38  23 S6        29.72S
OGALLALA       CLOUDY    74  39  27 SW12G20   29.72R
$$

NEZ005>010-023>029-035>040-094-010000-
NORTH CENTRAL NEBRASKA

CITY           SKY/WX    TMP DP  RH WIND       PRES   REMARKS
VALENTINE      SUNNY     72  43  35 W21G30    29.64R
AINSWORTH      SUNNY     73  42  33 W15G24    29.66S
BROKEN BOW     SUNNY     76  43  30 SW8       29.69S
O`NEILL        SUNNY     77  45  31 SW10G21   29.67S
ORD            SUNNY     77  42  28 W7        29.67S
THEDFORD       SUNNY     74  42  31 W10       29.69S
$$

NEZ041-046>049-061>064-073>077-083>087-010000-
SOUTH CENTRAL NEBRASKA

CITY           SKY/WX    TMP DP  RH WIND       PRES   REMARKS
GRAND ISLAND   SUNNY     72  61  68 S13       29.72S
AURORA         SUNNY     71  61  72 S9        29.73S
HASTINGS       SUNNY     72  58  61 S12       29.73S
HEBRON         CLOUDY    67  64  90 CALM      29.73F
HOLDREGE       SUNNY     75  51  43 S3        29.72S
KEARNEY *      MOSUNNY   73  55  53 SE16      29.72R
YORK           PTSUNNY   68  63  83 S8        29.74F
$$

NEZ011>018-030>034-042>045-010000-
NORTHEAST NEBRASKA

CITY           SKY/WX    TMP DP  RH WIND       PRES   REMARKS
NORFOLK        MOSUNNY   69  61  75 S17       29.72F
ALBION         SUNNY     72  60  66 SE15      29.71R
BLAIR          RAIN      65  63  91 SE15      29.76F
COLUMBUS *     PTSUNNY   68  61  77 S10       29.75S
FREMONT        CLOUDY    67  64  89 SE14      29.76F
TEKAMAH        LGT RAIN  66  63  90 S13       29.76F
WAYNE          PTSUNNY   68  63  84 S10       29.73F
$$

NEZ050>053-065>068-078-088>093-010000-
SOUTHEAST NEBRASKA

CITY           SKY/WX    TMP DP  RH WIND       PRES   REMARKS
LINCOLN        LGT RAIN  63  60  90 SE13      29.77F
OMAHA EPPLEY   TSTM      66  64  93 E9        29.79F FOG
BEATRICE       CLOUDY    66  64  93 E7        29.75F
FALLS CITY     PTSUNNY   71  65  81 NE6       29.75F
NEBRASKA CITY  TSTM      65  65 100 E13       29.75F
PLATTSMOUTH      N/A     64  63  94 N6        29.80R
$$

NEZ044-045-051>053-067-010000-
OMAHA AREA

CITY           SKY/WX    TMP DP  RH WIND       PRES   REMARKS
OMAHA EPPLEY   TSTM      66  64  93 E9        29.79F FOG
BLAIR          RAIN      65  63  91 SE15      29.76F
FREMONT        CLOUDY    67  64  89 SE14      29.76F
MILLARD        RAIN      66  64  93 E8        29.77F
OFFUTT AFB     RAIN      66  66 100 NW7       29.80S FOG
PLATTSMOUTH      N/A     64  63  94 N6        29.80R
WAHOO          MOCLDY    66  62  87 SE13      29.77R
$$



USA.gov is the U.S. government's official web portal to all federal, state and local government web resources and services.